Location: USNO
(38.9242°N, 77.0663°W)
Time: 17:11:03
(UTC-05:00)

Vanguard 1 - All Passes

Search period start: 19 February 2018 00:00
Search period end: 01 March 2018 00:00
Orbit: 650 x 3833 km, 34.2° (Epoch: 19 February)

Date Brightness Start Highest point End Pass type
(mag) Time Alt. Az. Time Alt. Az. Time Alt. Az.
19 Feb - 11:21:28 10° S 11:28:40 14° SSE 11:34:36 10° ESE daylight
19 Feb - 13:38:43 10° SW 13:51:39 34° SSE 13:59:23 10° E daylight
19 Feb - 16:02:36 10° WSW 16:13:13 56° S 16:19:10 10° E daylight
19 Feb - 18:26:44 10° W 18:33:30 50° SSW 18:38:03 10° ESE visible
19 Feb - 20:49:50 10° WSW 20:52:44 16° SSW 20:55:27 10° S visible
20 Feb - 11:38:44 10° S 11:50:00 20° SSE 11:58:12 10° ESE daylight
20 Feb - 13:59:11 10° SW 14:12:49 42° SSE 14:20:35 10° E daylight
20 Feb - 16:23:53 10° WSW 16:34:13 60° S 16:40:01 10° E daylight
20 Feb - 18:48:01 10° W 18:54:19 42° SSW 18:58:43 10° SE visible
21 Feb - 11:57:31 10° SSW 12:11:17 26° SSE 12:20:28 10° E daylight
21 Feb - 14:20:00 10° SW 14:33:58 49° SSE 14:41:37 10° E daylight
21 Feb - 16:45:16 10° W 16:55:12 62° S 17:00:50 10° ESE daylight
21 Feb - 19:09:21 10° W 19:15:03 33° SSW 19:19:13 10° SE visible
22 Feb - 10:02:54 10° SSE 10:08:51 12° SE 10:14:06 10° ESE daylight
22 Feb - 12:17:07 10° SSW 12:32:32 33° SSE 12:42:08 10° E daylight
22 Feb - 14:41:06 10° WSW 14:55:04 56° SSE 15:02:34 10° E daylight
22 Feb - 17:06:41 10° W 17:16:08 60° S 17:21:37 10° ESE daylight
22 Feb - 19:30:50 10° W 19:35:41 25° SSW 19:39:28 10° SSE visible
23 Feb - 10:18:28 10° S 10:30:09 18° SE 10:39:18 10° ESE daylight
23 Feb - 12:37:17 10° SW 12:53:46 41° SSE 13:03:30 10° E daylight
23 Feb - 15:02:25 10° WSW 15:16:09 62° S 15:23:28 10° E daylight
23 Feb - 17:28:07 10° W 17:37:03 55° SSW 17:42:20 10° ESE daylight
23 Feb - 19:52:38 10° WSW 19:56:15 17° SW 19:59:18 10° S visible
24 Feb - 10:36:32 10° S 10:51:25 25° SE 11:02:12 10° E daylight
24 Feb - 12:57:54 10° SW 13:14:58 48° SSE 13:24:39 10° E daylight
24 Feb - 15:23:51 10° WSW 15:37:14 66° S 15:44:19 10° E daylight
24 Feb - 17:49:32 10° W 17:57:52 47° SSW 18:02:58 10° SE daylight
24 Feb - 20:15:44 10° SW 20:16:45 10° SW 20:17:42 10° SSW visible
25 Feb - 10:55:37 10° SSW 11:12:40 31° SSE 11:24:15 10° E daylight
25 Feb - 13:18:50 10° SW 13:36:11 56° SSE 13:45:41 10° E daylight
25 Feb - 15:45:24 10° W 15:58:18 67° S 16:05:08 10° ESE daylight
25 Feb - 18:11:01 10° W 18:18:35 38° SSW 18:23:26 10° SE visible
26 Feb - 08:59:32 10° SSE 09:09:49 15° SE 09:18:42 10° ESE daylight
26 Feb - 11:15:23 10° SSW 11:33:55 39° SSE 11:45:51 10° E daylight
26 Feb - 13:40:03 10° WSW 13:57:22 62° SSE 14:06:38 10° E daylight
26 Feb - 16:06:58 10° W 16:19:18 65° S 16:25:54 10° ESE daylight
26 Feb - 18:32:35 10° W 18:39:11 28° SSW 18:43:41 10° SSE visible
27 Feb - 09:16:23 10° S 09:30:59 21° SE 09:42:46 10° E daylight
27 Feb - 11:35:39 10° SW 11:55:10 46° SSE 12:07:11 10° E daylight
27 Feb - 14:01:28 10° WSW 14:18:33 67° S 14:27:33 10° E daylight
27 Feb - 16:28:32 10° W 16:40:15 60° SSW 16:46:37 10° ESE daylight
27 Feb - 18:54:26 10° W 18:59:40 20° SW 19:03:33 10° S visible
28 Feb - 09:34:48 10° SSW 09:52:09 28° SE 10:05:25 10° E daylight
28 Feb - 11:56:20 10° SW 12:16:25 54° SSE 12:28:20 10° E daylight
28 Feb - 14:23:02 10° WSW 14:39:43 70° S 14:48:26 10° E daylight
28 Feb - 16:50:06 10° W 17:01:06 52° SSW 17:07:15 10° SE daylight
28 Feb - 19:17:00 10° WSW 19:20:02 13° SW 19:22:36 10° SSW visible
